Regional Weather Roundup
Issued by NWS Bismarck, ND

Home | Current Version | Previous Version | Text Only | Print | Product List | Glossary On
Versions: 1 2 3 4 5 6 7 8 9 10 11 12 13 14 15 16 17 18 19 20 21 22 23 24 25 26 27 28 29 30 31 32 33 34 35 36 37 38 39 40 41 42 43 44 45 46 47 48 49 50
072
ASUS43 KBIS 242110
RWRBIS

NWR BROADCAST TEXT
NATIONAL WEATHER SERVICE BISMARCK ND
400 PM CDT WED AUG 24 2016

NOTE: "FAIR" INDICATES FEW OR NO CLOUDS BELOW 12,000 FEET WITH NO
SIGNIFICANT WEATHER AND/OR OBSTRUCTIONS TO VISIBILITY.


CITY           SKY/WX    TMP DP  RH WIND       PRES   REMARKS
WILLISTON      CLOUDY    63  48  58 W20G31    30.04S
MINOT          CLOUDY    69  49  48 W17G32    29.93R
MINOT AFB      MOSUNNY   68  50  52 W26G36    29.91R
BISMARCK       PTSUNNY   73  47  39 W17G24    30.01S
DICKINSON      PTSUNNY   68  42  38 NW29G35   30.06R
GARRISON         N/A     69  49  48 W21G33    29.99R
HETTINGER ARPT SUNNY     74  41  30 W24G38    30.09S
JAMESTOWN      PTSUNNY   70  51  51 W23G30    29.97R
CARRINGTON     MOCLDY    70  50  49 W23G31    29.97S
HAZEN          CLOUDY    68  46  45 W17       30.03S
LINTON         FAIR      75  54  46 W17G24    30.03F
MANDAN         MOCLDY    72  46  40 W28G33    30.02S
OAKES            N/A    N/A N/A N/A MISG        N/A
STANLEY        FAIR      64  46  52 W18G36    30.00S
WATFORD CITY   CLOUDY    61  46  59 W20G28    30.06S
$$

CITY           SKY/WX    TMP DP  RH WIND       PRES   REMARKS
GRAND FORKS    PTSUNNY   73  53  49 W16G23    29.88S
GRAND FORKS AF PTSUNNY   74  52  46 W16G23    29.90R
DEVILS LAKE    CLOUDY    68  51  54 W15G24    29.92R HAZE
FARGO          MOSUNNY   76  53  44 W20G25    29.93S
CAVALIER       MOCLDY    72  52  49 W14G21    29.86R
GRAFTON        MOCLDY    70  54  56 W17G24    29.89R
GWINNER        FAIR      75  54  46 W20G28    29.99S
LANGDON        CLOUDY    68  50  52 W21G29    29.88S
ROLLA          MOCLDY    63  50  63 W15       29.89S
$$

CITY           SKY/WX    TMP DP  RH WIND       PRES   REMARKS
ABERDEEN       SUNNY     77  51  40 W12G23    30.01F
MOBRIDGE       MOSUNNY   80  45  28 W17G23    30.01F
BUFFALO          N/A     73  44  35 NW29G38   30.06F
RAPID CITY     MOSUNNY   73  45  36 NE7       30.14F
GLASGOW        CLOUDY    58  46  64 NW30G36   30.17S
SIDNEY         MOSUNNY   66  47  50 NW23G32   30.08R
WOLF POINT     CLOUDY    63  48  58 W20       30.14R
GLENDIVE       CLOUDY    64  44  48 NW24G35   30.14R
MILES CITY     MOSUNNY   70  39  32 NW25G43   30.16S
BAKER          MOSUNNY   70  39  32 NW31G40   30.14R
$$

CITY           SKY/WX    TMP DP  RH WIND       PRES   REMARKS
BILLINGS       MOSUNNY   65  42  43 NE16G23   30.26S
GREAT FALLS    PTSUNNY   62  38  40 VRB3      30.34F
REGINA         LGT RAIN  55  48  76 N18G30    30.05R
ESTEVAN        CLOUDY    63  50  63 W24G31    29.95R
$$





USA.gov is the U.S. government's official web portal to all federal, state and local government web resources and services.